{"data":{"norad_id":68199,"epoch":"2026-09-19T21:58:21.614016Z","epoch_age_seconds":125851,"freshness":"FRESH","line1":"1 68199U 26052B   26262.91552794  .00002314  00000+0  14007-3 0  9992","line2":"2 68199  97.5254 336.2474 0011920 350.9299   9.1714 15.11559983 28353","mean_motion":15.11559983,"eccentricity":0.001192,"inclination_deg":97.5254,"raan_deg":336.2474,"arg_perigee_deg":350.9299,"mean_anomaly_deg":9.1714,"bstar":0.00014007,"rev_number":2835,"period_min":95.265819166635,"perigee_km":523.205740523,"apogee_km":539.6781767604,"semimajor_km":6909.5789586417,"source":"CELESTRAK","updated_at":"2026-09-20T09:00:24.067789Z"}}